Wetterdaten: Samstag, 21.11.2015
Datum Zeit Temp. A. Feuchte A. Luftdruck Regen Wind Richtung Richtung Sonnenschein ET UV Solar Taupunkt Windchill Windben Empfang
21.11.2015 00:00 5,6 C 94 % 997,4 hPa 0,0 l/m 12,6 km/h (3 Bft) W-NW 290 0 min 0,000 mm 0,0 UV-I 0 W/m 4,7 C 1,1 C 25,7 km/h (4 Bft) 100,00 %
21.11.2015 00:05 5,4 C 94 % 997,7 hPa 0,2 l/m 12,2 km/h (2 Bft) W-NW 290 0 min 0,000 mm 0,0 UV-I 0 W/m 4,5 C 1,1 C 22,5 km/h (4 Bft) 98,20 %
21.11.2015 00:10 5,2 C 94 % 997,8 hPa 0,2 l/m 9,1 km/h (2 Bft) W-NW 297 0 min 0,000 mm 0,0 UV-I 0 W/m 4,3 C 2,9 C 20,9 km/h (4 Bft) 99,13 %
21.11.2015 00:15 5,0 C 94 % 998,0 hPa 0,2 l/m 11,8 km/h (2 Bft) W-SW 257 0 min 0,000 mm 0,0 UV-I 0 W/m 4,1 C 0,9 C 22,5 km/h (4 Bft) 98,33 %
21.11.2015 00:20 4,8 C 94 % 998,0 hPa 0,2 l/m 15,3 km/h (3 Bft) W-NW 283 0 min 0,000 mm 0,0 UV-I 0 W/m 3,9 C -1,3 C 30,6 km/h (5 Bft) 100,00 %
21.11.2015 00:25 4,7 C 93 % 997,9 hPa 0,2 l/m 15,0 km/h (3 Bft) W-SW 253 0 min 0,000 mm 0,0 UV-I 0 W/m 3,7 C -1,3 C 29,0 km/h (5 Bft) 98,17 %
21.11.2015 00:30 4,5 C 93 % 997,9 hPa 0,2 l/m 16,0 km/h (3 Bft) W 267 0 min 0,000 mm 0,0 UV-I 0 W/m 3,5 C -2,0 C 25,7 km/h (4 Bft) 98,29 %
21.11.2015 00:35 4,4 C 94 % 997,9 hPa 0,2 l/m 12,8 km/h (3 Bft) W-SW 250 0 min 0,000 mm 0,0 UV-I 0 W/m 3,5 C -0,4 C 20,9 km/h (4 Bft) 96,52 %
21.11.2015 00:40 4,3 C 94 % 998,0 hPa 0,2 l/m 12,5 km/h (3 Bft) W 272 0 min 0,000 mm 0,0 UV-I 0 W/m 3,4 C -0,4 C 20,9 km/h (4 Bft) 100,00 %
21.11.2015 00:45 4,3 C 94 % 998,0 hPa 0,0 l/m 13,2 km/h (3 Bft) W 263 0 min 0,000 mm 0,0 UV-I 0 W/m 3,4 C -0,8 C 20,9 km/h (4 Bft) 100,00 %
21.11.2015 00:50 4,2 C 94 % 998,1 hPa 0,2 l/m 11,6 km/h (2 Bft) W-SW 255 0 min 0,000 mm 0,0 UV-I 0 W/m 3,3 C 0,1 C 19,3 km/h (3 Bft) 99,17 %
21.11.2015 00:55 4,2 C 94 % 998,2 hPa 0,2 l/m 15,3 km/h (3 Bft) W-SW 249 0 min 0,000 mm 0,0 UV-I 0 W/m 3,3 C -2,0 C 25,7 km/h (4 Bft) 100,00 %
21.11.2015 01:00 4,2 C 95 % 998,4 hPa 0,0 l/m 12,9 km/h (3 Bft) W-SW 248 0 min 0,000 mm 0,0 UV-I 0 W/m 3,5 C -0,7 C 20,9 km/h (4 Bft) 97,46 %
21.11.2015 01:05 4,2 C 95 % 998,3 hPa 0,2 l/m 12,0 km/h (2 Bft) SW 231 0 min 0,000 mm 0,0 UV-I 0 W/m 3,5 C -0,2 C 20,9 km/h (4 Bft) 98,11 %
21.11.2015 01:10 4,3 C 95 % 998,4 hPa 0,2 l/m 12,5 km/h (3 Bft) W-NW 301 0 min 0,000 mm 0,0 UV-I 0 W/m 3,6 C -0,4 C 20,9 km/h (4 Bft) 97,04 %
21.11.2015 01:15 4,3 C 95 % 998,3 hPa 0,2 l/m 12,8 km/h (3 Bft) W-SW 246 0 min 0,000 mm 0,0 UV-I 0 W/m 3,6 C -0,5 C 19,3 km/h (3 Bft) 95,76 %
21.11.2015 01:20 4,3 C 95 % 998,4 hPa 0,2 l/m 11,8 km/h (2 Bft) W-SW 238 0 min 0,000 mm 0,0 UV-I 0 W/m 3,6 C 0,1 C 19,3 km/h (3 Bft) 95,50 %
21.11.2015 01:25 4,2 C 94 % 998,5 hPa 0,0 l/m 17,1 km/h (3 Bft) W-SW 240 0 min 0,000 mm 0,0 UV-I 0 W/m 3,3 C -2,9 C 30,6 km/h (5 Bft) 97,39 %
21.11.2015 01:30 4,2 C 93 % 998,6 hPa 0,2 l/m 18,4 km/h (3 Bft) W-SW 246 0 min 0,000 mm 0,0 UV-I 0 W/m 3,2 C -3,5 C 27,4 km/h (4 Bft) 97,52 %
21.11.2015 01:35 4,1 C 94 % 998,6 hPa 0,0 l/m 14,4 km/h (3 Bft) W-SW 243 0 min 0,000 mm 0,0 UV-I 0 W/m 3,2 C -1,7 C 27,4 km/h (4 Bft) 98,20 %
21.11.2015 01:40 4,1 C 94 % 998,6 hPa 0,2 l/m 16,8 km/h (3 Bft) S-SW 205 0 min 0,000 mm 0,0 UV-I 0 W/m 3,2 C -2,9 C 29,0 km/h (5 Bft) 98,35 %
21.11.2015 01:45 4,0 C 94 % 998,6 hPa 0,0 l/m 15,7 km/h (3 Bft) W-SW 258 0 min 0,000 mm 0,0 UV-I 0 W/m 3,1 C -2,5 C 22,5 km/h (4 Bft) 97,46 %
21.11.2015 01:50 3,9 C 94 % 998,6 hPa 0,2 l/m 16,4 km/h (3 Bft) W-SW 240 0 min 0,000 mm 0,0 UV-I 0 W/m 3,0 C -3,0 C 25,7 km/h (4 Bft) 98,37 %
21.11.2015 01:55 3,9 C 94 % 998,7 hPa 0,0 l/m 15,3 km/h (3 Bft) S-SW 212 0 min 0,000 mm 0,0 UV-I 0 W/m 3,0 C -2,4 C 25,7 km/h (4 Bft) 100,00 %
21.11.2015 02:00 3,8 C 94 % 998,5 hPa 0,0 l/m 16,9 km/h (3 Bft) W-SW 244 0 min 0,000 mm 0,0 UV-I 0 W/m 2,9 C -3,3 C 27,4 km/h (4 Bft) 99,15 %
21.11.2015 02:05 3,8 C 93 % 998,8 hPa 0,0 l/m 17,9 km/h (3 Bft) SW 227 0 min 0,000 mm 0,0 UV-I 0 W/m 2,8 C -3,8 C 29,0 km/h (5 Bft) 100,00 %
21.11.2015 02:10 3,8 C 93 % 998,7 hPa 0,0 l/m 16,5 km/h (3 Bft) S-SW 212 0 min 0,000 mm 0,0 UV-I 0 W/m 2,8 C -3,1 C 25,7 km/h (4 Bft) 100,00 %
21.11.2015 02:15 3,8 C 94 % 998,8 hPa 0,0 l/m 15,5 km/h (3 Bft) W 263 0 min 0,000 mm 0,0 UV-I 0 W/m 2,9 C -2,6 C 27,4 km/h (4 Bft) 99,19 %
21.11.2015 02:20 3,8 C 94 % 999,0 hPa 0,0 l/m 15,0 km/h (3 Bft) W 273 0 min 0,000 mm 0,0 UV-I 0 W/m 2,9 C -2,4 C 29,0 km/h (5 Bft) 99,15 %
21.11.2015 02:25 3,8 C 95 % 999,1 hPa 0,2 l/m 13,3 km/h (3 Bft) W-SW 246 0 min 0,000 mm 0,0 UV-I 0 W/m 3,1 C -1,4 C 20,9 km/h (4 Bft) 99,17 %
21.11.2015 02:30 3,8 C 95 % 999,1 hPa 0,0 l/m 12,7 km/h (3 Bft) W-SW 242 0 min 0,000 mm 0,0 UV-I 0 W/m 3,1 C -1,1 C 20,9 km/h (4 Bft) 100,00 %
21.11.2015 02:35 3,8 C 94 % 999,1 hPa 0,0 l/m 15,6 km/h (3 Bft) W-SW 244 0 min 0,000 mm 0,0 UV-I 0 W/m 2,9 C -2,7 C 29,0 km/h (5 Bft) 99,19 %
21.11.2015 02:40 3,8 C 94 % 999,0 hPa 0,0 l/m 16,4 km/h (3 Bft) SW 225 0 min 0,000 mm 0,0 UV-I 0 W/m 2,9 C -3,1 C 25,7 km/h (4 Bft) 99,10 %
21.11.2015 02:45 3,7 C 94 % 999,2 hPa 0,0 l/m 16,4 km/h (3 Bft) W-SW 238 0 min 0,000 mm 0,0 UV-I 0 W/m 2,8 C -3,2 C 24,1 km/h (4 Bft) 100,00 %
21.11.2015 02:50 3,7 C 94 % 999,0 hPa 0,0 l/m 15,3 km/h (3 Bft) W 269 0 min 0,000 mm 0,0 UV-I 0 W/m 2,8 C -2,7 C 22,5 km/h (4 Bft) 99,13 %
21.11.2015 02:55 3,7 C 94 % 998,9 hPa 0,0 l/m 14,7 km/h (3 Bft) W 260 0 min 0,000 mm 0,0 UV-I 0 W/m 2,8 C -2,3 C 25,7 km/h (4 Bft) 100,00 %
21.11.2015 03:00 3,7 C 94 % 998,8 hPa 0,0 l/m 14,6 km/h (3 Bft) W-SW 239 0 min 0,000 mm 0,0 UV-I 0 W/m 2,8 C -2,3 C 25,7 km/h (4 Bft) 99,13 %
21.11.2015 03:05 3,6 C 94 % 998,6 hPa 0,0 l/m 13,8 km/h (3 Bft) W-SW 242 0 min 0,000 mm 0,0 UV-I 0 W/m 2,7 C -2,0 C 24,1 km/h (4 Bft) 98,06 %
21.11.2015 03:10 3,6 C 94 % 998,7 hPa 0,0 l/m 13,7 km/h (3 Bft) W-SW 244 0 min 0,000 mm 0,0 UV-I 0 W/m 2,7 C -1,9 C 22,5 km/h (4 Bft) 97,62 %
21.11.2015 03:15 3,6 C 94 % 998,6 hPa 0,0 l/m 15,5 km/h (3 Bft) W-SW 246 0 min 0,000 mm 0,0 UV-I 0 W/m 2,7 C -2,9 C 22,5 km/h (4 Bft) 95,87 %
21.11.2015 03:20 3,6 C 94 % 998,6 hPa 0,0 l/m 13,0 km/h (3 Bft) W 265 0 min 0,000 mm 0,0 UV-I 0 W/m 2,7 C -1,5 C 25,7 km/h (4 Bft) 97,56 %
21.11.2015 03:25 3,6 C 94 % 998,6 hPa 0,0 l/m 12,6 km/h (3 Bft) W 269 0 min 0,000 mm 0,0 UV-I 0 W/m 2,7 C -1,2 C 17,7 km/h (3 Bft) 96,43 %
21.11.2015 03:30 3,6 C 95 % 998,5 hPa 0,0 l/m 11,9 km/h (2 Bft) W 264 0 min 0,000 mm 0,0 UV-I 0 W/m 2,9 C -0,8 C 20,9 km/h (4 Bft) 96,52 %
21.11.2015 03:35 3,6 C 95 % 998,5 hPa 0,0 l/m 12,5 km/h (3 Bft) W-SW 246 0 min 0,000 mm 0,0 UV-I 0 W/m 2,9 C -1,2 C 17,7 km/h (3 Bft) 95,73 %
21.11.2015 03:40 3,6 C 95 % 998,4 hPa 0,0 l/m 10,1 km/h (2 Bft) W-SW 253 0 min 0,000 mm 0,0 UV-I 0 W/m 2,9 C 0,5 C 17,7 km/h (3 Bft) 99,15 %
21.11.2015 03:45 3,6 C 95 % 998,3 hPa 0,0 l/m 10,5 km/h (2 Bft) W-SW 257 0 min 0,000 mm 0,0 UV-I 0 W/m 2,9 C 0,2 C 19,3 km/h (3 Bft) 99,15 %
21.11.2015 03:50 3,6 C 95 % 998,2 hPa 0,0 l/m 10,0 km/h (2 Bft) W-SW 253 0 min 0,000 mm 0,0 UV-I 0 W/m 2,9 C 0,5 C 17,7 km/h (3 Bft) 98,31 %
21.11.2015 03:55 3,6 C 95 % 998,2 hPa 0,0 l/m 11,6 km/h (2 Bft) W-SW 245 0 min 0,000 mm 0,0 UV-I 0 W/m 2,9 C -0,6 C 17,7 km/h (3 Bft) 100,00 %
21.11.2015 04:00 3,6 C 95 % 998,0 hPa 0,0 l/m 9,2 km/h (2 Bft) W 281 0 min 0,000 mm 0,0 UV-I 0 W/m 2,9 C 1,1 C 16,1 km/h (3 Bft) 99,15 %
21.11.2015 04:05 3,6 C 95 % 998,0 hPa 0,0 l/m 7,6 km/h (2 Bft) W-SW 249 0 min 0,000 mm 0,0 UV-I 0 W/m 2,9 C 2,5 C 12,9 km/h (3 Bft) 100,00 %
21.11.2015 04:10 3,6 C 95 % 998,1 hPa 0,0 l/m 9,7 km/h (2 Bft) W-SW 248 0 min 0,000 mm 0,0 UV-I 0 W/m 2,9 C 0,8 C 16,1 km/h (3 Bft) 98,43 %
21.11.2015 04:15 3,6 C 95 % 998,1 hPa 0,0 l/m 10,3 km/h (2 Bft) W-SW 257 0 min 0,000 mm 0,0 UV-I 0 W/m 2,9 C 0,3 C 16,1 km/h (3 Bft) 100,00 %
21.11.2015 04:20 3,7 C 95 % 998,3 hPa 0,0 l/m 6,3 km/h (2 Bft) SW 221 0 min 0,000 mm 0,0 UV-I 0 W/m 3,0 C 3,7 C 11,3 km/h (2 Bft) 100,00 %
21.11.2015 04:25 3,7 C 95 % 998,3 hPa 0,0 l/m 8,5 km/h (2 Bft) SW 234 0 min 0,000 mm 0,0 UV-I 0 W/m 3,0 C 1,8 C 12,9 km/h (3 Bft) 98,33 %
21.11.2015 04:30 3,7 C 95 % 998,4 hPa 0,0 l/m 8,3 km/h (2 Bft) SW 217 0 min 0,000 mm 0,0 UV-I 0 W/m 3,0 C 2,0 C 14,5 km/h (3 Bft) 99,15 %
21.11.2015 04:35 3,7 C 95 % 998,1 hPa 0,0 l/m 6,6 km/h (2 Bft) W-SW 244 0 min 0,000 mm 0,0 UV-I 0 W/m 3,0 C 3,5 C 11,3 km/h (2 Bft) 100,00 %
21.11.2015 04:40 3,7 C 95 % 998,2 hPa 0,0 l/m 9,2 km/h (2 Bft) W 271 0 min 0,000 mm 0,0 UV-I 0 W/m 3,0 C 1,2 C 16,1 km/h (3 Bft) 99,21 %
21.11.2015 04:45 3,7 C 95 % 998,2 hPa 0,0 l/m 5,6 km/h (1 Bft) W-SW 248 0 min 0,000 mm 0,0 UV-I 0 W/m 3,0 C 3,7 C 11,3 km/h (2 Bft) 98,31 %
21.11.2015 04:50 3,7 C 95 % 998,1 hPa 0,0 l/m 4,9 km/h (1 Bft) W 259 0 min 0,000 mm 0,0 UV-I 0 W/m 3,0 C 3,7 C 9,7 km/h (2 Bft) 97,46 %
21.11.2015 04:55 3,7 C 95 % 998,1 hPa 0,0 l/m 4,3 km/h (1 Bft) W-SW 254 0 min 0,000 mm 0,0 UV-I 0 W/m 3,0 C 3,7 C 9,7 km/h (2 Bft) 98,29 %
21.11.2015 05:00 3,7 C 95 % 998,1 hPa 0,0 l/m 7,3 km/h (2 Bft) W 270 0 min 0,000 mm 0,0 UV-I 0 W/m 3,0 C 2,9 C 12,9 km/h (3 Bft) 99,13 %
21.11.2015 05:05 3,7 C 95 % 998,1 hPa 0,0 l/m 6,4 km/h (2 Bft) SW 226 0 min 0,000 mm 0,0 UV-I 0 W/m 3,0 C 3,7 C 12,9 km/h (3 Bft) 100,00 %
21.11.2015 05:10 3,7 C 95 % 998,1 hPa 0,0 l/m 7,6 km/h (2 Bft) SW 221 0 min 0,000 mm 0,0 UV-I 0 W/m 3,0 C 2,6 C 11,3 km/h (2 Bft) 97,44 %
21.11.2015 05:15 3,8 C 95 % 998,1 hPa 0,0 l/m 8,4 km/h (2 Bft) SW 216 0 min 0,000 mm 0,0 UV-I 0 W/m 3,1 C 2,0 C 12,9 km/h (3 Bft) 96,33 %
21.11.2015 05:20 3,8 C 94 % 998,1 hPa 0,0 l/m 7,9 km/h (2 Bft) W-SW 246 0 min 0,000 mm 0,0 UV-I 0 W/m 2,9 C 2,4 C 14,5 km/h (3 Bft) 97,56 %
21.11.2015 05:25 3,8 C 95 % 998,1 hPa 0,0 l/m 5,8 km/h (2 Bft) S-SW 213 0 min 0,000 mm 0,0 UV-I 0 W/m 3,1 C 3,8 C 12,9 km/h (3 Bft) 98,26 %
21.11.2015 05:30 3,8 C 95 % 998,1 hPa 0,0 l/m 7,4 km/h (2 Bft) SW 221 0 min 0,000 mm 0,0 UV-I 0 W/m 3,1 C 2,9 C 12,9 km/h (3 Bft) 96,61 %
21.11.2015 05:35 3,8 C 95 % 998,2 hPa 0,0 l/m 7,2 km/h (2 Bft) SW 236 0 min 0,000 mm 0,0 UV-I 0 W/m 3,1 C 3,1 C 12,9 km/h (3 Bft) 95,61 %
21.11.2015 05:40 3,8 C 95 % 998,2 hPa 0,0 l/m 7,0 km/h (2 Bft) W-SW 244 0 min 0,000 mm 0,0 UV-I 0 W/m 3,1 C 3,3 C 12,9 km/h (3 Bft) 96,92 %
21.11.2015 05:45 3,8 C 95 % 998,2 hPa 0,2 l/m 7,0 km/h (2 Bft) SW 234 0 min 0,000 mm 0,0 UV-I 0 W/m 3,1 C 3,3 C 11,3 km/h (2 Bft) 97,37 %
21.11.2015 05:50 3,8 C 95 % 998,2 hPa 0,0 l/m 8,6 km/h (2 Bft) S-SW 200 0 min 0,000 mm 0,0 UV-I 0 W/m 3,1 C 1,8 C 17,7 km/h (3 Bft) 98,06 %
21.11.2015 05:55 3,7 C 95 % 998,2 hPa 0,0 l/m 7,7 km/h (2 Bft) W-SW 258 0 min 0,000 mm 0,0 UV-I 0 W/m 3,0 C 2,5 C 12,9 km/h (3 Bft) 98,40 %
21.11.2015 06:00 3,7 C 95 % 998,1 hPa 0,0 l/m 8,1 km/h (2 Bft) W-SW 240 0 min 0,000 mm 0,0 UV-I 0 W/m 3,0 C 2,2 C 14,5 km/h (3 Bft) 99,19 %
21.11.2015 06:05 3,7 C 95 % 998,1 hPa 0,2 l/m 10,7 km/h (2 Bft) W-SW 240 0 min 0,000 mm 0,0 UV-I 0 W/m 3,0 C 0,1 C 17,7 km/h (3 Bft) 100,00 %
21.11.2015 06:10 3,7 C 95 % 998,1 hPa 0,0 l/m 10,9 km/h (2 Bft) SW 224 0 min 0,000 mm 0,0 UV-I 0 W/m 3,0 C -0,0 C 19,3 km/h (3 Bft) 98,35 %
21.11.2015 06:15 3,7 C 95 % 998,2 hPa 0,0 l/m 10,6 km/h (2 Bft) W-SW 238 0 min 0,000 mm 0,0 UV-I 0 W/m 3,0 C 0,2 C 16,1 km/h (3 Bft) 100,00 %
21.11.2015 06:20 3,7 C 94 % 998,1 hPa 0,0 l/m 12,6 km/h (3 Bft) SW 225 0 min 0,000 mm 0,0 UV-I 0 W/m 2,8 C -1,1 C 19,3 km/h (3 Bft) 100,00 %
21.11.2015 06:25 3,7 C 94 % 998,0 hPa 0,0 l/m 10,8 km/h (2 Bft) SW 220 0 min 0,000 mm 0,0 UV-I 0 W/m 2,8 C 0,1 C 17,7 km/h (3 Bft) 99,08 %
21.11.2015 06:30 3,7 C 95 % 997,9 hPa 0,0 l/m 9,3 km/h (2 Bft) W 266 0 min 0,000 mm 0,0 UV-I 0 W/m 3,0 C 1,2 C 14,5 km/h (3 Bft) 100,00 %
21.11.2015 06:35 3,7 C 94 % 997,9 hPa 0,0 l/m 11,0 km/h (2 Bft) SW 231 0 min 0,000 mm 0,0 UV-I 0 W/m 2,8 C -0,1 C 19,3 km/h (3 Bft) 98,31 %
21.11.2015 06:40 3,7 C 94 % 998,0 hPa 0,0 l/m 13,3 km/h (3 Bft) W-SW 242 0 min 0,000 mm 0,0 UV-I 0 W/m 2,8 C -1,5 C 20,9 km/h (4 Bft) 98,20 %
21.11.2015 06:45 3,7 C 94 % 998,0 hPa 0,0 l/m 10,8 km/h (2 Bft) SW 234 0 min 0,000 mm 0,0 UV-I 0 W/m 2,8 C 0,1 C 17,7 km/h (3 Bft) 100,00 %
21.11.2015 06:50 3,6 C 94 % 998,0 hPa 0,0 l/m 11,2 km/h (2 Bft) SW 223 0 min 0,000 mm 0,0 UV-I 0 W/m 2,7 C -0,3 C 22,5 km/h (4 Bft) 99,15 %
21.11.2015 06:55 3,6 C 95 % 998,0 hPa 0,0 l/m 10,8 km/h (2 Bft) S-SW 208 0 min 0,000 mm 0,0 UV-I 0 W/m 2,9 C -0,1 C 17,7 km/h (3 Bft) 100,00 %
21.11.2015 07:00 3,6 C 95 % 998,0 hPa 0,0 l/m 9,7 km/h (2 Bft) SW 225 0 min 0,000 mm 0,0 UV-I 0 W/m 2,9 C 0,8 C 16,1 km/h (3 Bft) 100,00 %
21.11.2015 07:05 3,6 C 95 % 998,0 hPa 0,0 l/m 8,9 km/h (2 Bft) W 264 0 min 0,000 mm 0,0 UV-I 0 W/m 2,9 C 1,4 C 16,1 km/h (3 Bft) 98,26 %
21.11.2015 07:10 3,6 C 95 % 997,9 hPa 0,0 l/m 10,2 km/h (2 Bft) W 273 0 min 0,000 mm 0,0 UV-I 0 W/m 2,9 C 0,4 C 17,7 km/h (3 Bft) 98,33 %
21.11.2015 07:15 3,6 C 95 % 998,0 hPa 0,0 l/m 10,0 km/h (2 Bft) SW 236 0 min 0,000 mm 0,0 UV-I 0 W/m 2,9 C 0,5 C 16,1 km/h (3 Bft) 97,58 %
21.11.2015 07:20 3,6 C 95 % 998,0 hPa 0,0 l/m 8,1 km/h (2 Bft) W-SW 257 0 min 0,000 mm 0,0 UV-I 0 W/m 2,9 C 2,0 C 16,1 km/h (3 Bft) 97,22 %
21.11.2015 07:25 3,6 C 95 % 998,1 hPa 0,0 l/m 10,6 km/h (2 Bft) W-SW 246 0 min 0,000 mm 0,0 UV-I 0 W/m 2,9 C 0,1 C 17,7 km/h (3 Bft) 96,77 %
21.11.2015 07:30 3,6 C 95 % 998,1 hPa 0,0 l/m 9,0 km/h (2 Bft) SW 231 0 min 0,000 mm 0,0 UV-I 0 W/m 2,9 C 1,3 C 14,5 km/h (3 Bft) 98,11 %
21.11.2015 07:35 3,6 C 95 % 998,2 hPa 0,0 l/m 8,1 km/h (2 Bft) S-SW 213 0 min 0,000 mm 0,0 UV-I 0 W/m 2,9 C 2,0 C 16,1 km/h (3 Bft) 96,15 %
21.11.2015 07:40 3,6 C 95 % 998,2 hPa 0,0 l/m 9,3 km/h (2 Bft) S-SW 210 0 min 0,000 mm 0,0 UV-I 5 W/m 2,9 C 1,1 C 14,5 km/h (3 Bft) 97,09 %
21.11.2015 07:45 3,6 C 94 % 998,3 hPa 0,2 l/m 12,1 km/h (2 Bft) W 268 0 min 0,000 mm 0,0 UV-I 8 W/m 2,7 C -0,9 C 22,5 km/h (4 Bft) 97,69 %
21.11.2015 07:50 3,6 C 94 % 998,3 hPa 0,0 l/m 12,1 km/h (2 Bft) W-SW 248 0 min 0,000 mm 0,0 UV-I 8 W/m 2,7 C -0,9 C 20,9 km/h (4 Bft) 99,15 %
21.11.2015 07:55 3,7 C 94 % 998,3 hPa 0,0 l/m 11,7 km/h (2 Bft) SW 217 0 min 0,000 mm 0,0 UV-I 7 W/m 2,8 C -0,5 C 19,3 km/h (3 Bft) 100,00 %
21.11.2015 08:00 3,7 C 94 % 998,3 hPa 0,0 l/m 10,5 km/h (2 Bft) SW 227 0 min 0,000 mm 0,0 UV-I 10 W/m 2,8 C 0,3 C 19,3 km/h (3 Bft) 100,00 %
21.11.2015 08:05 3,7 C 94 % 998,4 hPa 0,0 l/m 11,1 km/h (2 Bft) SW 216 0 min 0,000 mm 0,0 UV-I 12 W/m 2,8 C -0,1 C 22,5 km/h (4 Bft) 99,15 %
21.11.2015 08:10 3,7 C 94 % 998,4 hPa 0,0 l/m 9,1 km/h (2 Bft) SW 220 0 min 0,000 mm 0,0 UV-I 11 W/m 2,8 C 1,3 C 14,5 km/h (3 Bft) 99,13 %
21.11.2015 08:15 3,7 C 94 % 998,4 hPa 0,0 l/m 7,4 km/h (2 Bft) W-NW 284 0 min 0,000 mm 0,0 UV-I 13 W/m 2,8 C 2,8 C 14,5 km/h (3 Bft) 98,25 %
21.11.2015 08:20 3,7 C 94 % 998,4 hPa 0,0 l/m 7,8 km/h (2 Bft) S-SW 205 0 min 0,000 mm 0,0 UV-I 16 W/m 2,8 C 2,4 C 14,5 km/h (3 Bft) 98,39 %
21.11.2015 08:25 3,7 C 94 % 998,5 hPa 0,0 l/m 8,2 km/h (2 Bft) SW 217 0 min 0,000 mm 0,0 UV-I 13 W/m 2,8 C 2,1 C 14,5 km/h (3 Bft) 98,97 %
21.11.2015 08:30 3,7 C 94 % 998,4 hPa 0,0 l/m 7,2 km/h (2 Bft) SW 232 0 min 0,000 mm 0,0 UV-I 10 W/m 2,8 C 3,0 C 14,5 km/h (3 Bft) 100,00 %
21.11.2015 08:35 3,7 C 94 % 998,2 hPa 0,0 l/m 7,7 km/h (2 Bft) S 179 0 min 0,000 mm 0,0 UV-I 13 W/m 2,8 C 2,5 C 12,9 km/h (3 Bft) 99,08 %
21.11.2015 08:40 3,7 C 93 % 998,1 hPa 0,0 l/m 8,1 km/h (2 Bft) SW 236 0 min 0,000 mm 0,0 UV-I 19 W/m 2,7 C 2,2 C 17,7 km/h (3 Bft) 98,33 %
21.11.2015 08:45 3,7 C 93 % 998,0 hPa 0,0 l/m 9,7 km/h (2 Bft) SW 227 0 min 0,000 mm 0,0 UV-I 24 W/m 2,7 C 0,9 C 16,1 km/h (3 Bft) 100,00 %
21.11.2015 08:50 3,7 C 94 % 997,9 hPa 0,0 l/m 8,9 km/h (2 Bft) W-SW 238 0 min 0,000 mm 0,0 UV-I 28 W/m 2,8 C 1,5 C 17,7 km/h (3 Bft) 99,13 %
21.11.2015 08:55 3,7 C 93 % 997,7 hPa 0,0 l/m 7,7 km/h (2 Bft) SW 217 0 min 0,000 mm 0,0 UV-I 41 W/m 2,7 C 2,5 C 14,5 km/h (3 Bft) 99,19 %
21.11.2015 09:00 3,7 C 93 % 997,6 hPa 0,0 l/m 11,5 km/h (2 Bft) SW 215 0 min 0,025 mm 0,0 UV-I 60 W/m 2,7 C -0,4 C 19,3 km/h (3 Bft) 100,00 %
21.11.2015 09:05 3,7 C 93 % 997,5 hPa 0,0 l/m 9,0 km/h (2 Bft) SW 234 0 min 0,000 mm 0,0 UV-I 72 W/m 2,7 C 1,4 C 16,1 km/h (3 Bft) 100,00 %
21.11.2015 09:10 3,7 C 93 % 997,5 hPa 0,0 l/m 6,6 km/h (2 Bft) SW 236 0 min 0,000 mm 0,0 UV-I 82 W/m 2,7 C 3,5 C 16,1 km/h (3 Bft) 99,07 %
21.11.2015 09:15 3,7 C 93 % 997,5 hPa 0,0 l/m 9,0 km/h (2 Bft) S 178 0 min 0,000 mm 0,0 UV-I 84 W/m 2,7 C 1,4 C 14,5 km/h (3 Bft) 96,85 %
21.11.2015 09:20 3,8 C 93 % 997,4 hPa 0,0 l/m 8,9 km/h (2 Bft) S-SO 165 0 min 0,000 mm 0,0 UV-I 89 W/m 2,8 C 1,6 C 17,7 km/h (3 Bft) 96,49 %
21.11.2015 09:25 3,8 C 93 % 997,4 hPa 0,0 l/m 7,2 km/h (2 Bft) S 184 0 min 0,000 mm 0,0 UV-I 84 W/m 2,8 C 3,1 C 12,9 km/h (3 Bft) 97,52 %
21.11.2015 09:30 3,8 C 93 % 997,4 hPa 0,0 l/m 7,6 km/h (2 Bft) S-SW 194 0 min 0,000 mm 0,0 UV-I 68 W/m 2,8 C 2,7 C 16,1 km/h (3 Bft) 98,21 %
21.11.2015 09:35 3,9 C 93 % 997,4 hPa 0,0 l/m 6,6 km/h (2 Bft) SW 216 0 min 0,000 mm 0,0 UV-I 65 W/m 2,9 C 3,7 C 12,9 km/h (3 Bft) 95,61 %
21.11.2015 09:40 3,9 C 93 % 997,5 hPa 0,0 l/m 7,1 km/h (2 Bft) SW 214 0 min 0,000 mm 0,0 UV-I 49 W/m 2,9 C 3,3 C 12,9 km/h (3 Bft) 95,54 %
21.11.2015 09:45 4,0 C 94 % 997,3 hPa 0,0 l/m 7,7 km/h (2 Bft) S 178 0 min 0,000 mm 0,0 UV-I 47 W/m 3,1 C 2,8 C 12,9 km/h (3 Bft) 96,69 %
21.11.2015 09:50 4,1 C 93 % 997,3 hPa 0,0 l/m 7,9 km/h (2 Bft) SW 234 0 min 0,000 mm 0,0 UV-I 49 W/m 3,1 C 2,7 C 17,7 km/h (3 Bft) 97,62 %
21.11.2015 09:55 4,0 C 92 % 997,3 hPa 0,0 l/m 8,4 km/h (2 Bft) SW 219 0 min 0,000 mm 0,0 UV-I 46 W/m 2,8 C 2,2 C 16,1 km/h (3 Bft) 98,26 %
21.11.2015 10:00 4,1 C 92 % 997,4 hPa 0,0 l/m 6,5 km/h (2 Bft) SW 229 0 min 0,026 mm 0,0 UV-I 43 W/m 2,9 C 4,0 C 12,9 km/h (3 Bft) 98,25 %
21.11.2015 10:05 4,1 C 93 % 997,3 hPa 0,0 l/m 5,4 km/h (1 Bft) S-SW 213 0 min 0,000 mm 0,0 UV-I 36 W/m 3,1 C 4,1 C 12,9 km/h (3 Bft) 98,26 %
21.11.2015 10:10 4,2 C 92 % 997,3 hPa 0,0 l/m 7,0 km/h (2 Bft) S-SW 209 0 min 0,000 mm 0,0 UV-I 40 W/m 3,0 C 3,7 C 11,3 km/h (2 Bft) 99,13 %
21.11.2015 10:15 4,2 C 92 % 997,3 hPa 0,0 l/m 7,2 km/h (2 Bft) W-SW 248 0 min 0,000 mm 0,0 UV-I 37 W/m 3,0 C 3,5 C 16,1 km/h (3 Bft) 100,00 %
21.11.2015 10:20 4,2 C 92 % 997,5 hPa 0,0 l/m 8,6 km/h (2 Bft) W-SW 243 0 min 0,000 mm 0,0 UV-I 32 W/m 3,0 C 2,3 C 14,5 km/h (3 Bft) 100,00 %
21.11.2015 10:25 4,2 C 92 % 997,3 hPa 0,0 l/m 8,4 km/h (2 Bft) S-SW 198 0 min 0,000 mm 0,0 UV-I 33 W/m 3,0 C 2,4 C 14,5 km/h (3 Bft) 98,00 %
21.11.2015 10:30 4,1 C 92 % 997,2 hPa 0,0 l/m 5,3 km/h (1 Bft) SW 236 0 min 0,000 mm 0,0 UV-I 44 W/m 2,9 C 4,1 C 8,0 km/h (2 Bft) 99,28 %
21.11.2015 10:35 4,1 C 93 % 997,2 hPa 0,0 l/m 5,6 km/h (1 Bft) W-SW 242 0 min 0,000 mm 0,0 UV-I 34 W/m 3,1 C 4,1 C 9,7 km/h (2 Bft) 100,00 %
21.11.2015 10:40 4,2 C 93 % 997,2 hPa 0,0 l/m 6,4 km/h (2 Bft) SW 225 0 min 0,000 mm 0,0 UV-I 30 W/m 3,2 C 4,2 C 14,5 km/h (3 Bft) 98,29 %
21.11.2015 10:45 4,2 C 92 % 997,1 hPa 0,0 l/m 6,8 km/h (2 Bft) SW 227 0 min 0,000 mm 0,0 UV-I 38 W/m 3,0 C 3,8 C 12,9 km/h (3 Bft) 100,00 %
21.11.2015 10:50 4,3 C 92 % 997,2 hPa 0,0 l/m 8,2 km/h (2 Bft) SW 232 0 min 0,000 mm 0,0 UV-I 48 W/m 3,1 C 2,7 C 14,5 km/h (3 Bft) 98,21 %
21.11.2015 10:55 4,3 C 92 % 997,2 hPa 0,0 l/m 6,5 km/h (2 Bft) S 191 0 min 0,000 mm 0,0 UV-I 67 W/m 3,1 C 4,2 C 11,3 km/h (2 Bft) 100,00 %
21.11.2015 11:00 4,3 C 92 % 997,0 hPa 0,0 l/m 7,2 km/h (2 Bft) W-SW 253 0 min 0,025 mm 0,0 UV-I 70 W/m 3,1 C 3,6 C 11,3 km/h (2 Bft) 100,00 %
21.11.2015 11:05 4,4 C 92 % 996,8 hPa 0,0 l/m 4,9 km/h (1 Bft) SW 222 0 min 0,000 mm 0,0 UV-I 87 W/m 3,2 C 4,4 C 9,7 km/h (2 Bft) 99,11 %
21.11.2015 11:10 4,4 C 92 % 996,8 hPa 0,0 l/m 4,9 km/h (1 Bft) W 260 0 min 0,000 mm 0,0 UV-I 96 W/m 3,2 C 4,4 C 8,0 km/h (2 Bft) 97,44 %
21.11.2015 11:15 4,5 C 91 % 996,6 hPa 0,0 l/m 4,3 km/h (1 Bft) W 266 0 min 0,000 mm 0,0 UV-I 95 W/m 3,2 C 4,5 C 8,0 km/h (2 Bft) 99,15 %
21.11.2015 11:20 4,6 C 91 % 996,9 hPa 0,0 l/m 7,6 km/h (2 Bft) W-SW 242 0 min 0,000 mm 0,0 UV-I 87 W/m 3,3 C 3,5 C 12,9 km/h (3 Bft) 96,67 %
21.11.2015 11:25 4,6 C 90 % 996,7 hPa 0,0 l/m 9,1 km/h (2 Bft) W 266 0 min 0,000 mm 0,0 UV-I 70 W/m 3,1 C 2,3 C 14,5 km/h (3 Bft) 97,32 %
21.11.2015 11:30 4,6 C 91 % 996,8 hPa 0,0 l/m 6,8 km/h (2 Bft) W-SW 240 0 min 0,000 mm 0,0 UV-I 59 W/m 3,3 C 4,3 C 11,3 km/h (2 Bft) 95,04 %
21.11.2015 11:35 4,6 C 91 % 996,8 hPa 0,0 l/m 7,0 km/h (2 Bft) W-SW 250 0 min 0,000 mm 0,0 UV-I 65 W/m 3,3 C 4,1 C 12,9 km/h (3 Bft) 95,73 %
21.11.2015 11:40 4,6 C 91 % 996,9 hPa 0,0 l/m 7,0 km/h (2 Bft) W-SW 241 0 min 0,000 mm 0,0 UV-I 83 W/m 3,3 C 4,1 C 12,9 km/h (3 Bft) 97,39 %
21.11.2015 11:45 4,7 C 90 % 996,8 hPa 0,0 l/m 7,6 km/h (2 Bft) SW 236 0 min 0,000 mm 0,0 UV-I 77 W/m 3,2 C 3,6 C 12,9 km/h (3 Bft) 97,39 %
21.11.2015 11:50 4,7 C 91 % 996,7 hPa 0,0 l/m 6,1 km/h (2 Bft) W-SW 257 0 min 0,000 mm 0,0 UV-I 91 W/m 3,4 C 4,7 C 16,1 km/h (3 Bft) 96,67 %
21.11.2015 11:55 4,7 C 87 % 996,5 hPa 0,0 l/m 10,6 km/h (2 Bft) W 279 0 min 0,000 mm 0,0 UV-I 113 W/m 2,7 C 1,3 C 17,7 km/h (3 Bft) 99,15 %
21.11.2015 12:00 4,7 C 87 % 996,6 hPa 0,0 l/m 10,9 km/h (2 Bft) W 265 0 min 0,051 mm 0,0 UV-I 110 W/m 2,7 C 1,1 C 17,7 km/h (3 Bft) 97,44 %
21.11.2015 12:05 4,6 C 87 % 996,4 hPa 0,0 l/m 6,4 km/h (2 Bft) W 279 0 min 0,000 mm 0,0 UV-I 82 W/m 2,6 C 4,6 C 12,9 km/h (3 Bft) 99,11 %
21.11.2015 12:10 4,6 C 88 % 996,3 hPa 0,0 l/m 7,5 km/h (2 Bft) W-SW 257 0 min 0,000 mm 0,0 UV-I 62 W/m 2,8 C 3,6 C 12,9 km/h (3 Bft) 97,58 %
21.11.2015 12:15 4,6 C 88 % 996,3 hPa 0,0 l/m 6,6 km/h (2 Bft) W-NW 286 0 min 0,000 mm 0,0 UV-I 65 W/m 2,8 C 4,4 C 14,5 km/h (3 Bft) 98,25 %
21.11.2015 12:20 4,5 C 88 % 996,4 hPa 0,0 l/m 4,5 km/h (1 Bft) W 261 0 min 0,000 mm 0,0 UV-I 72 W/m 2,7 C 4,5 C 12,9 km/h (3 Bft) 100,00 %
21.11.2015 12:25 4,5 C 88 % 996,5 hPa 0,0 l/m 5,8 km/h (2 Bft) SW 232 0 min 0,000 mm 0,0 UV-I 69 W/m 2,7 C 4,5 C 12,9 km/h (3 Bft) 99,13 %
21.11.2015 12:30 4,6 C 87 % 996,5 hPa 0,0 l/m 6,5 km/h (2 Bft) W-SW 251 0 min 0,000 mm 0,0 UV-I 64 W/m 2,6 C 4,5 C 11,3 km/h (2 Bft) 99,15 %
21.11.2015 12:35 4,6 C 88 % 996,3 hPa 0,0 l/m 7,7 km/h (2 Bft) W-SW 252 0 min 0,000 mm 0,0 UV-I 70 W/m 2,8 C 3,4 C 14,5 km/h (3 Bft) 98,26 %
21.11.2015 12:40 4,6 C 88 % 996,2 hPa 0,0 l/m 5,8 km/h (2 Bft) W-SW 240 0 min 0,000 mm 0,0 UV-I 69 W/m 2,8 C 4,6 C 12,9 km/h (3 Bft) 100,00 %
21.11.2015 12:45 4,6 C 88 % 996,1 hPa 0,0 l/m 7,4 km/h (2 Bft) W-SW 249 0 min 0,000 mm 0,0 UV-I 70 W/m 2,8 C 3,7 C 11,3 km/h (2 Bft) 99,21 %
21.11.2015 12:50 4,7 C 89 % 996,1 hPa 0,0 l/m 5,0 km/h (1 Bft) W-SW 248 0 min 0,000 mm 0,0 UV-I 71 W/m 3,0 C 4,7 C 9,7 km/h (2 Bft) 100,00 %
21.11.2015 12:55 4,6 C 87 % 996,2 hPa 0,0 l/m 7,4 km/h (2 Bft) SW 234 0 min 0,000 mm 0,0 UV-I 58 W/m 2,6 C 3,7 C 14,5 km/h (3 Bft) 99,22 %
21.11.2015 13:00 4,7 C 87 % 996,2 hPa 0,0 l/m 7,8 km/h (2 Bft) SW 222 0 min 0,025 mm 0,0 UV-I 37 W/m 2,7 C 3,5 C 12,9 km/h (3 Bft) 100,00 %
21.11.2015 13:05 4,6 C 87 % 996,2 hPa 0,0 l/m 6,7 km/h (2 Bft) W-SW 248 0 min 0,000 mm 0,0 UV-I 40 W/m 2,6 C 4,3 C 12,9 km/h (3 Bft) 97,17 %
21.11.2015 13:10 4,6 C 87 % 996,5 hPa 0,0 l/m 7,7 km/h (2 Bft) W-SW 244 0 min 0,000 mm 0,0 UV-I 39 W/m 2,6 C 3,4 C 12,9 km/h (3 Bft) 98,29 %
21.11.2015 13:15 4,6 C 88 % 996,4 hPa 0,0 l/m 4,7 km/h (1 Bft) W 269 0 min 0,000 mm 0,0 UV-I 52 W/m 2,8 C 4,6 C 11,3 km/h (2 Bft) 99,21 %
21.11.2015 13:20 4,6 C 88 % 996,3 hPa 0,0 l/m 5,0 km/h (1 Bft) W 263 0 min 0,000 mm 0,0 UV-I 50 W/m 2,8 C 4,6 C 11,3 km/h (2 Bft) 98,17 %
21.11.2015 13:25 4,5 C 87 % 996,3 hPa 0,0 l/m 4,4 km/h (1 Bft) W 281 0 min 0,000 mm 0,0 UV-I 48 W/m 2,5 C 4,5 C 8,0 km/h (2 Bft) 97,62 %
21.11.2015 13:30 4,6 C 89 % 996,3 hPa 0,0 l/m 4,2 km/h (1 Bft) W-SW 257 0 min 0,000 mm 0,0 UV-I 45 W/m 2,9 C 4,6 C 6,4 km/h (2 Bft) 96,61 %
21.11.2015 13:35 4,6 C 87 % 996,1 hPa 0,0 l/m 4,3 km/h (1 Bft) W-SW 250 0 min 0,000 mm 0,0 UV-I 40 W/m 2,6 C 4,6 C 8,0 km/h (2 Bft) 95,50 %
21.11.2015 13:40 4,6 C 88 % 996,0 hPa 0,0 l/m 3,0 km/h (1 Bft) W 276 0 min 0,000 mm 0,0 UV-I 39 W/m 2,8 C 4,6 C 4,8 km/h (1 Bft) 96,69 %
21.11.2015 13:45 4,5 C 88 % 995,9 hPa 0,0 l/m 4,8 km/h (1 Bft) W 279 0 min 0,000 mm 0,0 UV-I 33 W/m 2,7 C 4,5 C 11,3 km/h (2 Bft) 95,65 %
21.11.2015 13:50 4,5 C 88 % 996,0 hPa 0,0 l/m 6,5 km/h (2 Bft) W-SW 255 0 min 0,000 mm 0,0 UV-I 43 W/m 2,7 C 4,4 C 12,9 km/h (3 Bft) 97,44 %
21.11.2015 13:55 4,6 C 89 % 996,2 hPa 0,0 l/m 5,2 km/h (1 Bft) W-SW 244 0 min 0,000 mm 0,0 UV-I 67 W/m 2,9 C 4,6 C 9,7 km/h (2 Bft) 96,61 %
21.11.2015 14:00 4,6 C 87 % 996,1 hPa 0,0 l/m 8,7 km/h (2 Bft) W-SW 257 0 min 0,026 mm 0,0 UV-I 85 W/m 2,6 C 2,6 C 14,5 km/h (3 Bft) 98,21 %
21.11.2015 14:05 4,6 C 87 % 996,0 hPa 0,0 l/m 6,9 km/h (2 Bft) W 267 0 min 0,000 mm 0,0 UV-I 91 W/m 2,6 C 4,2 C 12,9 km/h (3 Bft) 99,17 %
21.11.2015 14:10 4,6 C 86 % 995,8 hPa 0,0 l/m 8,8 km/h (2 Bft) W-SW 254 0 min 0,000 mm 0,0 UV-I 86 W/m 2,5 C 2,5 C 16,1 km/h (3 Bft) 97,46 %
21.11.2015 14:15 4,6 C 85 % 995,8 hPa 0,0 l/m 8,3 km/h (2 Bft) W-SW 241 0 min 0,000 mm 0,0 UV-I 83 W/m 2,3 C 2,9 C 12,9 km/h (3 Bft) 99,08 %
21.11.2015 14:20 4,5 C 85 % 995,8 hPa 0,0 l/m 8,4 km/h (2 Bft) W-SW 256 0 min 0,000 mm 0,0 UV-I 80 W/m 2,2 C 2,7 C 16,1 km/h (3 Bft) 99,21 %
21.11.2015 14:25 4,4 C 85 % 995,9 hPa 0,0 l/m 8,1 km/h (2 Bft) SW 218 0 min 0,000 mm 0,0 UV-I 74 W/m 2,1 C 2,9 C 12,9 km/h (3 Bft) 97,32 %
21.11.2015 14:30 4,4 C 85 % 996,0 hPa 0,0 l/m 4,8 km/h (1 Bft) W-SW 240 0 min 0,000 mm 0,0 UV-I 69 W/m 2,1 C 4,4 C 8,0 km/h (2 Bft) 100,00 %
21.11.2015 14:40 4,4 C 84 % 996,1 hPa 0,0 l/m 11,6 km/h (2 Bft) W-SW 249 0 min 0,000 mm 0,0 UV-I 56 W/m 1,9 C 0,3 C 19,3 km/h (3 Bft) 99,29 %
21.11.2015 14:45 4,4 C 85 % 995,9 hPa 0,0 l/m 9,0 km/h (2 Bft) W 277 0 min 0,000 mm 0,0 UV-I 56 W/m 2,1 C 2,2 C 14,5 km/h (3 Bft) 98,26 %
21.11.2015 14:50 4,3 C 85 % 995,7 hPa 0,0 l/m 8,3 km/h (2 Bft) NW 306 0 min 0,000 mm 0,0 UV-I 55 W/m 2,0 C 2,6 C 14,5 km/h (3 Bft) 100,00 %
21.11.2015 14:55 4,3 C 85 % 995,9 hPa 0,0 l/m 8,6 km/h (2 Bft) W 265 0 min 0,000 mm 0,0 UV-I 54 W/m 2,0 C 2,4 C 16,1 km/h (3 Bft) 100,00 %
21.11.2015 15:00 4,3 C 85 % 996,0 hPa 0,0 l/m 10,0 km/h (2 Bft) W-SW 239 0 min 0,051 mm 0,0 UV-I 49 W/m 2,0 C 1,3 C 16,1 km/h (3 Bft) 99,15 %
21.11.2015 15:05 4,3 C 85 % 995,8 hPa 0,0 l/m 8,5 km/h (2 Bft) W 260 0 min 0,000 mm 0,0 UV-I 40 W/m 2,0 C 2,5 C 16,1 km/h (3 Bft) 99,17 %
21.11.2015 15:10 4,2 C 85 % 995,9 hPa 0,0 l/m 8,5 km/h (2 Bft) W-SW 258 0 min 0,000 mm 0,0 UV-I 34 W/m 1,9 C 2,3 C 14,5 km/h (3 Bft) 99,12 %
21.11.2015 15:15 4,2 C 85 % 996,3 hPa 0,0 l/m 7,1 km/h (2 Bft) W-SW 238 0 min 0,000 mm 0,0 UV-I 30 W/m 1,9 C 3,6 C 11,3 km/h (2 Bft) 99,13 %
21.11.2015 15:20 4,1 C 85 % 996,2 hPa 0,0 l/m 8,8 km/h (2 Bft) W-SW 250 0 min 0,000 mm 0,0 UV-I 29 W/m 1,8 C 2,0 C 12,9 km/h (3 Bft) 99,17 %
21.11.2015 15:25 4,2 C 86 % 996,2 hPa 0,0 l/m 8,4 km/h (2 Bft) W-SW 255 0 min 0,000 mm 0,0 UV-I 26 W/m 2,1 C 2,4 C 14,5 km/h (3 Bft) 95,41 %
21.11.2015 15:30 4,1 C 86 % 996,0 hPa 0,0 l/m 8,3 km/h (2 Bft) W-SW 246 0 min 0,000 mm 0,0 UV-I 25 W/m 2,0 C 2,4 C 14,5 km/h (3 Bft) 96,06 %
21.11.2015 15:35 4,1 C 86 % 995,8 hPa 0,0 l/m 9,1 km/h (2 Bft) W-SW 251 0 min 0,000 mm 0,0 UV-I 23 W/m 2,0 C 1,8 C 14,5 km/h (3 Bft) 97,30 %
21.11.2015 15:40 4,1 C 86 % 996,1 hPa 0,0 l/m 12,2 km/h (2 Bft) W-SW 237 0 min 0,000 mm 0,0 UV-I 18 W/m 2,0 C -0,4 C 16,1 km/h (3 Bft) 98,21 %
21.11.2015 15:45 4,1 C 86 % 996,1 hPa 0,0 l/m 11,5 km/h (2 Bft) W-SW 252 0 min 0,000 mm 0,0 UV-I 14 W/m 2,0 C 0,0 C 17,7 km/h (3 Bft) 94,35 %
21.11.2015 15:50 4,1 C 85 % 996,2 hPa 0,0 l/m 10,8 km/h (2 Bft) W 264 0 min 0,000 mm 0,0 UV-I 13 W/m 1,8 C 0,5 C 16,1 km/h (3 Bft) 95,83 %
21.11.2015 15:55 4,1 C 85 % 996,4 hPa 0,0 l/m 10,0 km/h (2 Bft) W-SW 254 0 min 0,000 mm 0,0 UV-I 11 W/m 1,8 C 1,1 C 16,1 km/h (3 Bft) 96,43 %
21.11.2015 16:00 4,0 C 86 % 996,5 hPa 0,0 l/m 8,6 km/h (2 Bft) W 260 0 min 0,025 mm 0,0 UV-I 9 W/m 1,9 C 2,0 C 14,5 km/h (3 Bft) 98,35 %
21.11.2015 16:05 3,9 C 87 % 996,6 hPa 0,0 l/m 9,5 km/h (2 Bft) W 267 0 min 0,000 mm 0,0 UV-I 7 W/m 1,9 C 1,2 C 17,7 km/h (3 Bft) 98,15 %
21.11.2015 16:10 3,9 C 87 % 996,5 hPa 0,0 l/m 10,8 km/h (2 Bft) W 271 0 min 0,000 mm 0,0 UV-I 3 W/m 1,9 C 0,3 C 17,7 km/h (3 Bft) 100,00 %
21.11.2015 16:15 3,8 C 87 % 996,5 hPa 0,0 l/m 10,5 km/h (2 Bft) W-SW 239 0 min 0,000 mm 0,0 UV-I 0 W/m 1,8 C 0,4 C 17,7 km/h (3 Bft) 98,20 %
21.11.2015 16:20 3,8 C 87 % 996,4 hPa 0,0 l/m 9,6 km/h (2 Bft) W 260 0 min 0,000 mm 0,0 UV-I 0 W/m 1,8 C 1,0 C 16,1 km/h (3 Bft) 99,19 %
21.11.2015 16:25 3,8 C 87 % 996,3 hPa 0,0 l/m 6,7 km/h (2 Bft) W 273 0 min 0,000 mm 0,0 UV-I 0 W/m 1,8 C 3,5 C 12,9 km/h (3 Bft) 98,17 %
21.11.2015 16:30 3,7 C 88 % 996,0 hPa 0,0 l/m 4,8 km/h (1 Bft) W 279 0 min 0,000 mm 0,0 UV-I 0 W/m 1,9 C 3,7 C 11,3 km/h (2 Bft) 100,00 %
21.11.2015 16:35 3,6 C 88 % 996,2 hPa 0,0 l/m 3,6 km/h (1 Bft) W-NW 290 0 min 0,000 mm 0,0 UV-I 0 W/m 1,8 C 3,6 C 9,7 km/h (2 Bft) 100,00 %
21.11.2015 16:40 3,5 C 88 % 996,4 hPa 0,0 l/m 5,0 km/h (1 Bft) W-NW 289 0 min 0,000 mm 0,0 UV-I 0 W/m 1,7 C 3,5 C 9,7 km/h (2 Bft) 99,15 %
21.11.2015 16:45 3,5 C 88 % 996,3 hPa 0,0 l/m 5,7 km/h (1 Bft) W 259 0 min 0,000 mm 0,0 UV-I 0 W/m 1,7 C 3,5 C 11,3 km/h (2 Bft) 97,37 %
21.11.2015 16:50 3,4 C 88 % 996,3 hPa 0,0 l/m 6,8 km/h (2 Bft) W 267 0 min 0,000 mm 0,0 UV-I 0 W/m 1,6 C 3,0 C 11,3 km/h (2 Bft) 99,19 %
21.11.2015 16:55 3,4 C 87 % 996,2 hPa 0,0 l/m 8,2 km/h (2 Bft) W 265 0 min 0,000 mm 0,0 UV-I 0 W/m 1,4 C 1,7 C 14,5 km/h (3 Bft) 100,00 %
21.11.2015 17:00 3,4 C 87 % 996,2 hPa 0,0 l/m 7,5 km/h (2 Bft) W-SW 257 0 min 0,000 mm 0,0 UV-I 0 W/m 1,4 C 2,4 C 12,9 km/h (3 Bft) 99,13 %
21.11.2015 17:05 3,4 C 86 % 996,3 hPa 0,0 l/m 7,2 km/h (2 Bft) W-SW 246 0 min 0,000 mm 0,0 UV-I 0 W/m 1,3 C 2,7 C 12,9 km/h (3 Bft) 99,08 %
21.11.2015 17:10 3,3 C 87 % 996,3 hPa 0,0 l/m 5,4 km/h (1 Bft) W-SW 254 0 min 0,000 mm 0,0 UV-I 0 W/m 1,3 C 3,3 C 9,7 km/h (2 Bft) 100,00 %
21.11.2015 17:15 3,2 C 87 % 996,4 hPa 0,0 l/m 5,6 km/h (1 Bft) SW 236 0 min 0,000 mm 0,0 UV-I 0 W/m 1,2 C 3,2 C 11,3 km/h (2 Bft) 100,00 %
21.11.2015 17:20 3,2 C 87 % 996,4 hPa 0,0 l/m 4,5 km/h (1 Bft) SW 229 0 min 0,000 mm 0,0 UV-I 0 W/m 1,2 C 3,2 C 8,0 km/h (2 Bft) 99,13 %
21.11.2015 17:25 3,1 C 87 % 996,3 hPa 0,0 l/m 4,0 km/h (1 Bft) W-SW 238 0 min 0,000 mm 0,0 UV-I 0 W/m 1,2 C 3,1 C 6,4 km/h (2 Bft) 98,37 %
21.11.2015 17:30 3,1 C 87 % 996,4 hPa 0,0 l/m 5,0 km/h (1 Bft) S-SW 211 0 min 0,000 mm 0,0 UV-I 0 W/m 1,2 C 3,1 C 8,0 km/h (2 Bft) 99,13 %
21.11.2015 17:35 2,9 C 88 % 996,5 hPa 0,0 l/m 5,5 km/h (1 Bft) S 186 0 min 0,000 mm 0,0 UV-I 0 W/m 1,1 C 2,9 C 8,0 km/h (2 Bft) 96,58 %
21.11.2015 17:40 2,9 C 88 % 996,4 hPa 0,0 l/m 5,8 km/h (2 Bft) S-SW 192 0 min 0,000 mm 0,0 UV-I 0 W/m 1,1 C 2,9 C 9,7 km/h (2 Bft) 96,69 %
21.11.2015 17:45 2,9 C 88 % 996,4 hPa 0,0 l/m 3,7 km/h (1 Bft) SW 231 0 min 0,000 mm 0,0 UV-I 0 W/m 1,1 C 2,9 C 6,4 km/h (2 Bft) 96,43 %
21.11.2015 17:50 2,8 C 89 % 996,3 hPa 0,0 l/m 4,3 km/h (1 Bft) SW 229 0 min 0,000 mm 0,0 UV-I 0 W/m 1,2 C 2,8 C 6,4 km/h (2 Bft) 97,56 %
21.11.2015 17:55 2,7 C 90 % 996,1 hPa 0,0 l/m 4,7 km/h (1 Bft) SW 229 0 min 0,000 mm 0,0 UV-I 0 W/m 1,2 C 2,7 C 6,4 km/h (2 Bft) 95,54 %
21.11.2015 18:00 2,6 C 91 % 996,2 hPa 0,0 l/m 5,0 km/h (1 Bft) SW 229 0 min 0,000 mm 0,0 UV-I 0 W/m 1,3 C 2,6 C 8,0 km/h (2 Bft) 98,21 %
21.11.2015 18:05 2,5 C 91 % 996,2 hPa 0,0 l/m 6,3 km/h (2 Bft) SW 231 0 min 0,000 mm 0,0 UV-I 0 W/m 1,2 C 2,5 C 9,7 km/h (2 Bft) 96,03 %
21.11.2015 18:10 2,4 C 91 % 996,3 hPa 0,0 l/m 5,8 km/h (2 Bft) SW 221 0 min 0,000 mm 0,0 UV-I 0 W/m 1,1 C 2,4 C 8,0 km/h (2 Bft) 99,08 %
21.11.2015 18:15 2,5 C 91 % 996,3 hPa 0,0 l/m 5,0 km/h (1 Bft) S-SW 194 0 min 0,000 mm 0,0 UV-I 0 W/m 1,2 C 2,5 C 8,0 km/h (2 Bft) 99,19 %
21.11.2015 18:20 2,6 C 91 % 996,3 hPa 0,0 l/m 7,7 km/h (2 Bft) S-SW 200 0 min 0,000 mm 0,0 UV-I 0 W/m 1,3 C 1,4 C 11,3 km/h (2 Bft) 97,46 %
21.11.2015 18:25 2,6 C 89 % 996,3 hPa 0,0 l/m 6,2 km/h (2 Bft) S-SO 165 0 min 0,000 mm 0,0 UV-I 0 W/m 1,0 C 2,6 C 11,3 km/h (2 Bft) 100,00 %
21.11.2015 18:30 2,7 C 89 % 996,3 hPa 0,0 l/m 6,9 km/h (2 Bft) S-SW 207 0 min 0,000 mm 0,0 UV-I 0 W/m 1,1 C 2,2 C 9,7 km/h (2 Bft) 100,00 %
21.11.2015 18:35 2,7 C 89 % 996,3 hPa 0,0 l/m 5,9 km/h (2 Bft) S-SW 192 0 min 0,000 mm 0,0 UV-I 0 W/m 1,1 C 2,7 C 9,7 km/h (2 Bft) 100,00 %
21.11.2015 18:40 2,7 C 89 % 996,4 hPa 0,0 l/m 7,3 km/h (2 Bft) S 182 0 min 0,000 mm 0,0 UV-I 0 W/m 1,1 C 1,8 C 12,9 km/h (3 Bft) 99,15 %
21.11.2015 18:45 2,7 C 89 % 996,3 hPa 0,0 l/m 8,4 km/h (2 Bft) S 184 0 min 0,000 mm 0,0 UV-I 0 W/m 1,1 C 0,8 C 14,5 km/h (3 Bft) 100,00 %
21.11.2015 18:50 2,7 C 89 % 996,4 hPa 0,0 l/m 8,6 km/h (2 Bft) S-SW 202 0 min 0,000 mm 0,0 UV-I 0 W/m 1,1 C 0,7 C 11,3 km/h (2 Bft) 99,15 %
21.11.2015 18:55 2,7 C 89 % 996,5 hPa 0,0 l/m 8,1 km/h (2 Bft) S-SW 204 0 min 0,000 mm 0,0 UV-I 0 W/m 1,1 C 1,1 C 12,9 km/h (3 Bft) 100,00 %
21.11.2015 19:00 2,6 C 89 % 996,6 hPa 0,0 l/m 6,8 km/h (2 Bft) S-SW 202 0 min 0,000 mm 0,0 UV-I 0 W/m 1,0 C 2,2 C 9,7 km/h (2 Bft) 99,19 %
21.11.2015 19:05 2,6 C 90 % 996,9 hPa 0,0 l/m 6,2 km/h (2 Bft) S 191 0 min 0,000 mm 0,0 UV-I 0 W/m 1,1 C 2,6 C 9,7 km/h (2 Bft) 100,00 %
21.11.2015 19:10 2,4 C 90 % 996,8 hPa 0,0 l/m 6,8 km/h (2 Bft) SW 221 0 min 0,000 mm 0,0 UV-I 0 W/m 0,9 C 2,0 C 9,7 km/h (2 Bft) 100,00 %
21.11.2015 19:15 2,5 C 89 % 996,8 hPa 0,0 l/m 6,7 km/h (2 Bft) S-SW 206 0 min 0,000 mm 0,0 UV-I 0 W/m 0,9 C 2,2 C 12,9 km/h (3 Bft) 98,26 %
21.11.2015 19:20 2,6 C 89 % 996,7 hPa 0,0 l/m 6,0 km/h (2 Bft) S-SW 197 0 min 0,000 mm 0,0 UV-I 0 W/m 1,0 C 2,6 C 9,7 km/h (2 Bft) 100,00 %
21.11.2015 19:25 2,6 C 89 % 996,8 hPa 0,0 l/m 6,4 km/h (2 Bft) W-SW 238 0 min 0,000 mm 0,0 UV-I 0 W/m 1,0 C 2,6 C 9,7 km/h (2 Bft) 98,20 %
21.11.2015 19:30 2,6 C 89 % 996,9 hPa 0,0 l/m 7,1 km/h (2 Bft) W-SW 250 0 min 0,000 mm 0,0 UV-I 0 W/m 1,0 C 1,9 C 11,3 km/h (2 Bft) 99,13 %
21.11.2015 19:35 2,4 C 90 % 996,9 hPa 0,0 l/m 7,2 km/h (2 Bft) SW 231 0 min 0,000 mm 0,0 UV-I 0 W/m 0,9 C 1,6 C 12,9 km/h (3 Bft) 97,67 %
21.11.2015 19:40 2,4 C 90 % 996,9 hPa 0,0 l/m 7,7 km/h (2 Bft) W-SW 249 0 min 0,000 mm 0,0 UV-I 0 W/m 0,9 C 1,1 C 14,5 km/h (3 Bft) 98,17 %
21.11.2015 19:45 2,3 C 90 % 996,9 hPa 0,0 l/m 6,9 km/h (2 Bft) SW 228 0 min 0,000 mm 0,0 UV-I 0 W/m 0,8 C 1,8 C 9,7 km/h (2 Bft) 97,52 %
21.11.2015 19:50 2,3 C 90 % 997,0 hPa 0,0 l/m 6,9 km/h (2 Bft) S-SW 198 0 min 0,000 mm 0,0 UV-I 0 W/m 0,8 C 1,8 C 9,7 km/h (2 Bft) 97,32 %
21.11.2015 19:55 2,3 C 90 % 996,9 hPa 0,0 l/m 6,4 km/h (2 Bft) S-SW 211 0 min 0,000 mm 0,0 UV-I 0 W/m 0,8 C 2,3 C 9,7 km/h (2 Bft) 96,03 %
21.11.2015 20:00 2,3 C 90 % 996,9 hPa 0,0 l/m 6,0 km/h (2 Bft) W-SW 245 0 min 0,000 mm 0,0 UV-I 0 W/m 0,8 C 2,3 C 11,3 km/h (2 Bft) 97,32 %
21.11.2015 20:05 2,3 C 90 % 996,8 hPa 0,0 l/m 5,1 km/h (1 Bft) SW 226 0 min 0,000 mm 0,0 UV-I 0 W/m 0,8 C 2,3 C 9,7 km/h (2 Bft) 97,25 %
21.11.2015 20:10 2,2 C 90 % 996,7 hPa 0,0 l/m 4,9 km/h (1 Bft) SW 215 0 min 0,000 mm 0,0 UV-I 0 W/m 0,7 C 2,2 C 8,0 km/h (2 Bft) 96,58 %
21.11.2015 20:15 2,2 C 90 % 996,7 hPa 0,0 l/m 3,7 km/h (1 Bft) SW 214 0 min 0,000 mm 0,0 UV-I 0 W/m 0,7 C 2,2 C 4,8 km/h (1 Bft) 97,32 %
21.11.2015 20:20 2,2 C 90 % 996,5 hPa 0,0 l/m 4,8 km/h (1 Bft) SW 225 0 min 0,000 mm 0,0 UV-I 0 W/m 0,7 C 2,2 C 8,0 km/h (2 Bft) 97,37 %
21.11.2015 20:25 2,1 C 91 % 996,4 hPa 0,0 l/m 3,2 km/h (1 Bft) SW 225 0 min 0,000 mm 0,0 UV-I 0 W/m 0,8 C 2,1 C 4,8 km/h (1 Bft) 98,25 %
21.11.2015 20:30 2,0 C 91 % 996,6 hPa 0,0 l/m 3,3 km/h (1 Bft) SW 216 0 min 0,000 mm 0,0 UV-I 0 W/m 0,7 C 2,0 C 4,8 km/h (1 Bft) 100,00 %
21.11.2015 20:35 1,9 C 91 % 996,5 hPa 0,0 l/m 3,6 km/h (1 Bft) SW 221 0 min 0,000 mm 0,0 UV-I 0 W/m 0,6 C 1,9 C 4,8 km/h (1 Bft) 98,37 %
21.11.2015 20:40 1,8 C 92 % 996,4 hPa 0,0 l/m 4,4 km/h (1 Bft) S-SW 211 0 min 0,000 mm 0,0 UV-I 0 W/m 0,6 C 1,8 C 6,4 km/h (2 Bft) 100,00 %
21.11.2015 20:45 1,8 C 92 % 996,5 hPa 0,0 l/m 3,9 km/h (1 Bft) SW 233 0 min 0,000 mm 0,0 UV-I 0 W/m 0,6 C 1,8 C 6,4 km/h (2 Bft) 99,19 %
21.11.2015 20:50 1,8 C 92 % 996,5 hPa 0,0 l/m 3,6 km/h (1 Bft) SW 225 0 min 0,000 mm 0,0 UV-I 0 W/m 0,6 C 1,8 C 6,4 km/h (2 Bft) 100,00 %
21.11.2015 20:55 1,8 C 92 % 996,6 hPa 0,0 l/m 3,8 km/h (1 Bft) SW 227 0 min 0,000 mm 0,0 UV-I 0 W/m 0,6 C 1,8 C 4,8 km/h (1 Bft) 99,19 %
21.11.2015 21:00 1,8 C 92 % 996,7 hPa 0,0 l/m 4,6 km/h (1 Bft) W-SW 247 0 min 0,000 mm 0,0 UV-I 0 W/m 0,6 C 1,8 C 6,4 km/h (2 Bft) 99,15 %
21.11.2015 21:05 1,8 C 92 % 996,6 hPa 0,0 l/m 4,8 km/h (1 Bft) SW 215 0 min 0,000 mm 0,0 UV-I 0 W/m 0,6 C 1,8 C 6,4 km/h (2 Bft) 99,07 %
21.11.2015 21:10 1,8 C 92 % 996,7 hPa 0,0 l/m 4,9 km/h (1 Bft) SW 236 0 min 0,000 mm 0,0 UV-I 0 W/m 0,6 C 1,8 C 8,0 km/h (2 Bft) 100,00 %
21.11.2015 21:15 1,8 C 91 % 996,7 hPa 0,0 l/m 4,7 km/h (1 Bft) W 263 0 min 0,000 mm 0,0 UV-I 0 W/m 0,5 C 1,8 C 9,7 km/h (2 Bft) 100,00 %
21.11.2015 21:20 1,8 C 91 % 996,8 hPa 0,0 l/m 4,3 km/h (1 Bft) W-SW 251 0 min 0,000 mm 0,0 UV-I 0 W/m 0,5 C 1,8 C 6,4 km/h (2 Bft) 100,00 %
21.11.2015 21:25 1,8 C 91 % 996,8 hPa 0,0 l/m 4,5 km/h (1 Bft) W-SW 242 0 min 0,000 mm 0,0 UV-I 0 W/m 0,5 C 1,8 C 6,4 km/h (2 Bft) 99,17 %
21.11.2015 21:30 1,8 C 91 % 996,8 hPa 0,0 l/m 5,1 km/h (1 Bft) W-SW 248 0 min 0,000 mm 0,0 UV-I 0 W/m 0,5 C 1,8 C 8,0 km/h (2 Bft) 99,10 %
21.11.2015 21:35 1,7 C 92 % 996,8 hPa 0,0 l/m 4,3 km/h (1 Bft) SW 222 0 min 0,000 mm 0,0 UV-I 0 W/m 0,5 C 1,7 C 6,4 km/h (2 Bft) 100,00 %
21.11.2015 21:40 1,7 C 92 % 996,9 hPa 0,0 l/m 5,0 km/h (1 Bft) SW 223 0 min 0,000 mm 0,0 UV-I 0 W/m 0,5 C 1,7 C 9,7 km/h (2 Bft) 100,00 %
21.11.2015 21:45 1,7 C 92 % 996,9 hPa 0,0 l/m 3,9 km/h (1 Bft) W-SW 237 0 min 0,000 mm 0,0 UV-I 0 W/m 0,5 C 1,7 C 6,4 km/h (2 Bft) 96,67 %
21.11.2015 21:50 1,6 C 92 % 997,0 hPa 0,0 l/m 3,7 km/h (1 Bft) S-SW 196 0 min 0,000 mm 0,0 UV-I 0 W/m 0,4 C 1,6 C 6,4 km/h (2 Bft) 96,43 %
21.11.2015 21:55 1,6 C 92 % 997,1 hPa 0,0 l/m 3,6 km/h (1 Bft) S-SW 206 0 min 0,000 mm 0,0 UV-I 0 W/m 0,4 C 1,6 C 4,8 km/h (1 Bft) 96,52 %
21.11.2015 22:00 1,6 C 92 % 997,1 hPa 0,0 l/m 3,9 km/h (1 Bft) W-SW 239 0 min 0,000 mm 0,0 UV-I 0 W/m 0,4 C 1,6 C 6,4 km/h (2 Bft) 97,56 %
21.11.2015 22:05 1,5 C 92 % 997,2 hPa 0,0 l/m 3,9 km/h (1 Bft) SW 227 0 min 0,000 mm 0,0 UV-I 0 W/m 0,3 C 1,5 C 6,4 km/h (2 Bft) 96,43 %
21.11.2015 22:10 1,4 C 93 % 997,2 hPa 0,0 l/m 4,5 km/h (1 Bft) SW 220 0 min 0,000 mm 0,0 UV-I 0 W/m 0,4 C 1,4 C 6,4 km/h (2 Bft) 96,67 %
21.11.2015 22:15 1,3 C 93 % 997,1 hPa 0,0 l/m 4,9 km/h (1 Bft) S-SW 209 0 min 0,000 mm 0,0 UV-I 0 W/m 0,3 C 1,3 C 6,4 km/h (2 Bft) 97,58 %
21.11.2015 22:20 1,3 C 93 % 997,2 hPa 0,0 l/m 4,2 km/h (1 Bft) S-SW 207 0 min 0,000 mm 0,0 UV-I 0 W/m 0,3 C 1,3 C 6,4 km/h (2 Bft) 96,23 %
21.11.2015 22:25 1,2 C 93 % 997,2 hPa 0,0 l/m 5,2 km/h (1 Bft) SW 229 0 min 0,000 mm 0,0 UV-I 0 W/m 0,2 C 1,2 C 8,0 km/h (2 Bft) 100,00 %
21.11.2015 22:30 1,2 C 93 % 997,2 hPa 0,0 l/m 4,6 km/h (1 Bft) SW 215 0 min 0,000 mm 0,0 UV-I 0 W/m 0,2 C 1,2 C 6,4 km/h (2 Bft) 98,31 %
21.11.2015 22:35 1,2 C 93 % 997,3 hPa 0,0 l/m 5,1 km/h (1 Bft) SW 227 0 min 0,000 mm 0,0 UV-I 0 W/m 0,2 C 1,2 C 8,0 km/h (2 Bft) 100,00 %
21.11.2015 22:40 1,1 C 93 % 997,3 hPa 0,0 l/m 5,2 km/h (1 Bft) SW 235 0 min 0,000 mm 0,0 UV-I 0 W/m 0,1 C 1,1 C 8,0 km/h (2 Bft) 100,00 %
21.11.2015 22:45 1,1 C 93 % 997,2 hPa 0,0 l/m 4,7 km/h (1 Bft) SW 230 0 min 0,000 mm 0,0 UV-I 0 W/m 0,1 C 1,1 C 8,0 km/h (2 Bft) 100,00 %
21.11.2015 22:50 1,2 C 93 % 997,3 hPa 0,0 l/m 6,4 km/h (2 Bft) SW 230 0 min 0,000 mm 0,0 UV-I 0 W/m 0,2 C 1,2 C 8,0 km/h (2 Bft) 100,00 %
21.11.2015 23:00 1,1 C 93 % 997,3 hPa 0,0 l/m 4,5 km/h (1 Bft) W-SW 250 0 min 0,000 mm 0,0 UV-I 0 W/m 0,1 C 1,1 C 8,0 km/h (2 Bft) 99,33 %
21.11.2015 23:15 1,3 C 93 % 997,5 hPa 0,0 l/m 6,5 km/h (2 Bft) W-SW 249 0 min 0,000 mm 0,0 UV-I 0 W/m 0,3 C 1,2 C 11,3 km/h (2 Bft) 99,46 %
21.11.2015 23:20 1,3 C 93 % 997,6 hPa 0,0 l/m 6,2 km/h (2 Bft) W-SW 246 0 min 0,000 mm 0,0 UV-I 0 W/m 0,3 C 1,3 C 12,9 km/h (3 Bft) 98,21 %
21.11.2015 23:25 1,3 C 92 % 997,5 hPa 0,0 l/m 5,6 km/h (1 Bft) W 261 0 min 0,000 mm 0,0 UV-I 0 W/m 0,1 C 1,3 C 11,3 km/h (2 Bft) 100,00 %
21.11.2015 23:30 1,3 C 92 % 997,6 hPa 0,0 l/m 5,3 km/h (1 Bft) SW 225 0 min 0,000 mm 0,0 UV-I 0 W/m 0,1 C 1,3 C 9,7 km/h (2 Bft) 98,48 %
21.11.2015 23:35 1,2 C 93 % 997,6 hPa 0,0 l/m 4,6 km/h (1 Bft) SW 233 0 min 0,000 mm 0,0 UV-I 0 W/m 0,2 C 1,2 C 8,0 km/h (2 Bft) 98,35 %
21.11.2015 23:40 1,1 C 93 % 997,7 hPa 0,0 l/m 3,6 km/h (1 Bft) SW 226 0 min 0,000 mm 0,0 UV-I 0 W/m 0,1 C 1,1 C 6,4 km/h (2 Bft) 100,00 %
21.11.2015 23:45 1,1 C 93 % 997,7 hPa 0,0 l/m 4,2 km/h (1 Bft) SW 226 0 min 0,000 mm 0,0 UV-I 0 W/m 0,1 C 1,1 C 6,4 km/h (2 Bft) 97,44 %
21.11.2015 23:50 1,1 C 93 % 997,7 hPa 0,0 l/m 3,6 km/h (1 Bft) SW 219 0 min 0,000 mm 0,0 UV-I 0 W/m 0,1 C 1,1 C 6,4 km/h (2 Bft) 99,15 %
21.11.2015 23:55 1,1 C 93 % 997,7 hPa 0,0 l/m 3,4 km/h (1 Bft) S-SW 207 0 min 0,000 mm 0,0 UV-I 0 W/m 0,1 C 1,1 C 6,4 km/h (2 Bft) 98,11 %
_ Min-Zeit 22:40 14:40 14:50 - 13:40 - - - - - - 22:40 02:05 13:40 15:45
Minimum _ 1,1 C 84 % 995,7 hPa - 3,0 km/h (1 Bft) - - - - - - 0,1 C -3,8 C 4,8 km/h (1 Bft) 94,35 %
_ Max-Zeit 00:00 01:00 02:45 00:05 01:30 - - 00:00 12:00 00:00 11:55 00:00 11:50 00:20 00:00
Maximum _ 5,8 C 95 % 999,2 hPa 0,2 l/m 18,4 km/h
W-SW (3 Bft)
- - 0 min 0,051 mm 0,0 UV-I 113 W/m 4,7 C 4,7 C 30,6 km/h
W-NW (5 Bft)
100,00 %
Durchschnitt _ 3,5 C 91 % 997,3 hPa #4,2 l/m 8,2 km/h (2 Bft) W-SW - #0 min. #0,254 mm 0,0 UV-I 49 W/m 2,2 C 1,7 C 14,1 km/h (3 Bft) 98,47 %